Tacoma Narrows, WA

7:10 AM PDT on August 22, 2017 (GMT -0700)
Tacoma Narrows

Weather History for KTIW - February, 2014

Change the Weather History Date:

Saturday, February 8, 2014

  Actual Average Record
Temperature  
Mean Temperature 34 °F -  
Max Temperature 39 °F 46 °F 55 °F (2016)
Min Temperature 30 °F 36 °F 30 °F (2014)
Degree Days  
Heating Degree Days 30    
Moisture  
Dew Point 24 °F    
Average Humidity 73    
Maximum Humidity 93    
Minimum Humidity 39    
Precipitation  
Precipitation 0.13 in - - ()
Sea Level Pressure  
Sea Level Pressure 29.91 in    
Wind  
Wind Speed 9 mph (NNE)    
Max Wind Speed 14 mph    
Max Gust Speed 23 mph    
Visibility 6 miles    
Events Snow    
Averages and records for this station are not official NWS values.
T = Trace of Precipitation, MM = Missing Value Source: NWS Daily Summary

Daily Weather History Graph

Daily Weather History Graph

Search for Another Location

Airport or City:

Trip Planner

Search our weather history database for the weather conditions in past years. The results will help you decide how hot, cold, wet, or windy it might be!

Date:

Astronomy

Feb. 08, 2014 Rise Set
Actual Time 7:26 AM PST 5:23 PM PST
Civil Twilight 6:54 AM PST 5:55 PM PST
Nautical Twilight 6:17 AM PST 6:31 PM PST
Astronomical Twilight 5:42 AM PST 7:07 PM PST
Moon 12:15 PM PST (2/8) 2:49 AM PST (2/8)
Length of Visible Light 11h 01m
Length of Day
9h 57m
Waxing Gibbous, 69% of the Moon is Illuminated
Feb 8
Waxing Gibbous
Feb 14
Full
Feb 22
Last Quarter
Mar 1
New
Mar 8
First Quarter

Hourly Weather History & Observations

Time (PST) Temp. Windchill Dew Point Humidity Pressure Visibility Wind Dir Wind Speed Gust Speed Precip Events Conditions
12:53 AM 33.1 °F 23.4 °F 19.0 °F 56% 29.85 in 10.0 mi North 13.8 mph 23.0 mph N/A   Unknown
1:53 AM 33.1 °F 25.5 °F 19.9 °F 59% 29.87 in 10.0 mi North 9.2 mph 17.3 mph N/A   Unknown
2:53 AM 34.0 °F 28.0 °F 19.0 °F 54% 29.91 in 10.0 mi NNE 6.9 mph - N/A   Unknown
3:53 AM 34.0 °F 25.0 °F 17.1 °F 50% 29.95 in 10.0 mi North 12.7 mph - N/A   Unknown
4:53 AM 33.1 °F 25.5 °F 18.0 °F 54% 29.96 in 10.0 mi NNE 9.2 mph - N/A   Unknown
5:53 AM 32.0 °F 27.5 °F 17.1 °F 54% 29.99 in 10.0 mi Variable 4.6 mph - N/A   Unknown
6:53 AM 32.0 °F 27.5 °F 21.9 °F 66% 29.99 in 10.0 mi NE 4.6 mph - N/A   Unknown
7:53 AM 32.0 °F 25.6 °F 19.9 °F 61% 30.00 in 10.0 mi NE 6.9 mph - N/A   Mostly Cloudy
8:53 AM 33.1 °F 27.7 °F 21.0 °F 61% 30.01 in 10.0 mi North 5.8 mph - N/A   Scattered Clouds
9:53 AM 34.0 °F 28.0 °F 18.0 °F 52% 30.02 in 10.0 mi Variable 6.9 mph - N/A   Scattered Clouds
10:53 AM 35.1 °F 27.4 °F 18.0 °F 50% 30.01 in 10.0 mi NNE 10.4 mph - N/A   Scattered Clouds
11:53 AM 37.0 °F 29.3 °F 19.0 °F 48% 29.98 in 10.0 mi North 11.5 mph 17.3 mph N/A   Scattered Clouds
12:53 PM 37.0 °F 30.4 °F 19.0 °F 48% 29.96 in 10.0 mi North 9.2 mph - N/A   Partly Cloudy
1:53 PM 39.0 °F 31.0 °F 21.9 °F 50% 29.91 in 10.0 mi North 13.8 mph 18.4 mph N/A   Overcast
2:53 PM 37.9 °F 29.6 °F 21.9 °F 53% 29.86 in 10.0 mi North 13.8 mph 20.7 mph N/A   Overcast
3:53 PM 37.9 °F 31.5 °F 21.0 °F 51% 29.84 in 10.0 mi North 9.2 mph - N/A   Overcast
4:53 PM 37.9 °F 31.5 °F 15.1 °F 39% 29.84 in 10.0 mi NNE 9.2 mph 23.0 mph N/A   Overcast
5:53 PM 36.0 °F 30.3 °F 21.0 °F 55% 29.85 in 9.0 mi East 6.9 mph - 0.00 in Snow Light Snow
6:02 PM 35.6 °F 29.2 °F 24.8 °F 65% 29.84 in 2.0 mi NE 8.1 mph - 0.00 in Snow Light Snow
6:32 PM 32.0 °F 25.6 °F 30.2 °F 93% 29.84 in 1.2 mi NE 6.9 mph - 0.00 in Snow Light Snow
6:53 PM 32.0 °F 24.2 °F 28.9 °F 88% 29.86 in 1.0 mi NNE 9.2 mph - 0.01 in Snow Light Snow
7:53 PM 30.0 °F 21.7 °F 28.0 °F 92% 29.87 in 0.8 mi NNE 9.2 mph - 0.03 in Snow Light Snow
8:00 PM 30.2 °F 21.9 °F 28.4 °F 93% 29.85 in 1.0 mi NE 9.2 mph 18.4 mph 0.01 in Snow Light Snow
8:20 PM 30.2 °F 21.9 °F 28.4 °F 93% 29.84 in 1.0 mi NNE 9.2 mph 17.3 mph 0.02 in Snow Light Snow
8:41 PM 30.2 °F 19.8 °F 28.4 °F 93% 29.85 in 0.8 mi NNE 13.8 mph 19.6 mph 0.03 in Snow Light Snow
8:53 PM 30.0 °F 21.7 °F 28.0 °F 92% 29.87 in 0.8 mi NE 9.2 mph 19.6 mph 0.03 in Snow Light Snow
9:38 PM 30.2 °F 24.3 °F 28.4 °F 93% 29.89 in 1.0 mi NNE 5.8 mph - 0.04 in Snow Light Snow
9:53 PM 30.0 °F 24.1 °F 28.0 °F 92% 29.91 in 1.0 mi NNE 5.8 mph - 0.04 in Snow Light Snow
10:18 PM 30.2 °F 20.8 °F 28.4 °F 93% 29.89 in 1.5 mi NNE 11.5 mph - 0.01 in Snow Light Snow
10:29 PM 30.2 °F 22.6 °F 28.4 °F 93% 29.88 in 2.5 mi NE 8.1 mph - 0.01 in Snow Light Snow
10:37 PM 30.2 °F 21.9 °F 28.4 °F 93% 29.88 in 3.0 mi NNE 9.2 mph - 0.01 in Snow Light Snow
10:45 PM 30.2 °F 23.4 °F 28.4 °F 93% 29.89 in 2.0 mi NE 6.9 mph - 0.01 in Snow Light Snow
10:53 PM 30.0 °F 23.2 °F 28.0 °F 92% 29.91 in 3.0 mi NNE 6.9 mph - 0.02 in Snow Light Snow
11:23 PM 30.2 °F 25.4 °F 28.4 °F 93% 29.93 in 1.8 mi North 4.6 mph - 0.00 in Snow Light Snow
11:33 PM 30.2 °F 24.3 °F 28.4 °F 93% 29.93 in 2.5 mi North 5.8 mph - 0.00 in Snow Light Snow
11:50 PM 30.2 °F 24.3 °F 28.4 °F 93% 29.93 in 4.0 mi North 5.8 mph - 0.00 in Snow Light Snow
11:53 PM 30.0 °F 24.1 °F 28.0 °F 92% 29.94 in 4.0 mi North 5.8 mph - 0.00 in Snow Light Snow